Weather History for Ostend, Belgium

Change the Weather History Date:

Wednesday, March 6, 2013

  Actual Average Record
Temperature  
Mean Temperature 51 °F -  
Max Temperature 61 °F 49 °F 61 °F (2013)
Min Temperature 41 °F 38 °F 28 °F (2001)
Degree Days  
Heating Degree Days 14    
Growing Degree Days 1 (Base 50)    
Moisture  
Dew Point 39 °F    
Average Humidity 66    
Maximum Humidity 81    
Minimum Humidity 43    
Precipitation  
Precipitation 0.00 in - - ()
Sea Level Pressure  
Sea Level Pressure 29.58 in    
Wind  
Wind Speed 4 mph ()    
Max Wind Speed 8 mph    
Max Gust Speed -    
Visibility 7.0 miles    
Events      
Averages and records for this station are not official NWS values.
T = Trace of Precipitation, MM = Missing Value Source: Averaged Metar Reports

Daily Weather History Graph

Daily Weather History Graph

Search for Another Location

Airport:

Trip Planner

Search our weather history database for the weather conditions in past years. The results will help you decide how hot, cold, wet, or windy it might be!

Date:

Astronomy

Mar. 06, 2013 Rise Set
Actual Time 7:22 AM CET 6:38 PM CET
Civil Twilight 6:49 AM CET 7:11 PM CET
Nautical Twilight 6:11 AM CET 7:49 PM CET
Astronomical Twilight 5:32 AM CET 8:28 PM CET
Moon 3:47 AM CET (3/6) 12:34 PM CET (3/6)
Length of Visible Light 12h 21m
Length of Day
11h 15m
Waning Crescent, 33% of the Moon is Illuminated
Mar 6
Waning Crescent
Mar 11
New
Mar 19
First Quarter
Mar 27
Full
Apr 3
Last Quarter

Hourly Weather History & Observations

Time (CET) Temp. Windchill Dew Point Humidity Pressure Visibility Wind Dir Wind Speed Gust Speed Precip Events Conditions
12:20 AM 42.8 °F 41.1 °F 33.8 °F 70% 29.65 in - ESE 3.5 mph - N/A   Clear
12:50 AM 44.6 °F 43.1 °F 35.6 °F 71% 29.65 in - ESE 3.5 mph - N/A   Clear
1:00 AM 44 °F - 36 °F 64% 29.65 in 6 mi ESE 2.2 mph - -   Scattered Clouds
1:20 AM 42.8 °F 41.1 °F 35.6 °F 76% 29.62 in - ESE 3.5 mph - N/A   Clear
1:50 AM 42.8 °F 39.3 °F 35.6 °F 76% 29.62 in - SE 5.8 mph - N/A   Clear
2:20 AM 42.8 °F 40.1 °F 35.6 °F 76% 29.62 in - SE 4.6 mph - N/A   Clear
2:50 AM 42.8 °F 41.1 °F 35.6 °F 76% 29.62 in - SE 3.5 mph - N/A   Clear
3:20 AM 42.8 °F 40.1 °F 33.8 °F 70% 29.62 in - SE 4.6 mph - N/A   Clear
3:50 AM 42.8 °F - 35.6 °F 76% 29.59 in - ESE 2.3 mph - N/A   Clear
4:00 AM 43 °F - 35 °F 64% 29.62 in 6 mi ESE 2.2 mph - -   Partly Cloudy
4:20 AM 42.8 °F - 35.6 °F 76% 29.59 in - ESE 2.3 mph - N/A   Clear
4:50 AM 42.8 °F 41.1 °F 37.4 °F 81% 29.59 in - ESE 3.5 mph - N/A   Clear
5:20 AM 42.8 °F - 35.6 °F 76% 29.59 in - ESE 2.3 mph - N/A   Clear
5:50 AM 44.6 °F 42.2 °F 35.6 °F 71% 29.59 in - East 4.6 mph - N/A   Clear
6:20 AM 42.8 °F 40.1 °F 35.6 °F 76% 29.59 in - ESE 4.6 mph - N/A   Clear
6:50 AM 42.8 °F - 33.8 °F 70% 29.59 in - ESE 2.3 mph - N/A   Clear
7:00 AM 42 °F - 35 °F 67% 29.61 in 6 mi ESE 2.2 mph - -   Mostly Cloudy
7:20 AM 42.8 °F 41.1 °F 33.8 °F 70% 29.59 in - East 3.5 mph - N/A   Clear
7:50 AM 41.0 °F 38.0 °F 33.8 °F 76% 29.59 in - East 4.6 mph - N/A   Clear
8:20 AM 42.8 °F 40.1 °F 35.6 °F 76% 29.59 in - East 4.6 mph - N/A   Clear
8:50 AM 46.4 °F 45.2 °F 37.4 °F 71% 29.59 in - East 3.5 mph - N/A   Clear
9:20 AM 46.4 °F - 39.2 °F 76% 29.59 in - ESE 2.3 mph - N/A   Clear
9:50 AM 48.2 °F - 39.2 °F 71% 29.59 in - SE 4.6 mph - N/A   Clear
10:00 AM 48 °F - 39 °F 61% 29.62 in 6 mi SE 4.5 mph - -   Mostly Cloudy
10:20 AM 50.0 °F - 39.2 °F 66% 29.62 in - SSE 4.6 mph - N/A   Clear
10:50 AM 50.0 °F - 39.2 °F 66% 29.59 in - SSE 8.1 mph - N/A   Clear
11:20 AM 51.8 °F - 39.2 °F 62% 29.59 in - SSE 8.1 mph - N/A   Clear
11:50 AM 53.6 °F - 39.2 °F 58% 29.59 in - SSE 6.9 mph - N/A   Clear
12:20 PM 53.6 °F - 39.2 °F 58% 29.59 in - SE 4.6 mph - N/A   Clear
12:50 PM 57.2 °F - 41.0 °F 55% 29.59 in - SSE 4.6 mph - N/A   Clear
1:00 PM 57 °F - 40 °F 43% 29.60 in 9 mi SSE 4.5 mph - -   Partly Cloudy
1:20 PM 59.0 °F - 41.0 °F 51% 29.56 in - SE 4.6 mph - N/A   Clear
1:50 PM 60.8 °F - 42.8 °F 52% 29.56 in - SSE 4.6 mph - N/A   Clear
2:20 PM 59.0 °F - 39.2 °F 48% 29.56 in - SSE 4.6 mph - N/A   Clear
2:50 PM 60.8 °F - 41.0 °F 48% 29.56 in - Variable 2.3 mph - N/A   Clear
3:20 PM 59.0 °F - 41.0 °F 51% 29.56 in - North 4.6 mph - N/A   Clear
3:50 PM 57.2 °F - 41.0 °F 55% 29.56 in - NNE 5.8 mph - N/A   Clear
4:00 PM 57 °F - 41 °F 45% 29.57 in 9 mi NNE 6.7 mph - -   Partly Cloudy
4:20 PM 57.2 °F - 42.8 °F 59% 29.56 in - North 5.8 mph - N/A   Clear
4:50 PM 55.4 °F - 42.8 °F 63% 29.53 in - NNE 5.8 mph - N/A   Clear
5:20 PM 53.6 °F - 41.0 °F 62% 29.53 in - NNE 4.6 mph - N/A   Clear
5:50 PM 53.6 °F - 41.0 °F 62% 29.53 in - NNE 4.6 mph - N/A   Clear
6:20 PM 51.8 °F - 41.0 °F 67% 29.53 in - NE 3.5 mph - N/A   Clear
6:50 PM 51.8 °F - 41.0 °F 67% 29.53 in - NE 4.6 mph - N/A   Clear
7:00 PM 52 °F - 41 °F 56% 29.56 in 7 mi NE 4.5 mph - -   Mostly Cloudy
7:20 PM 51.8 °F - 41.0 °F 67% 29.53 in - NNE 4.6 mph - N/A   Clear
7:50 PM 51.8 °F - 41.0 °F 67% 29.56 in - NE 4.6 mph - N/A   Clear
8:20 PM 51.8 °F - 41.0 °F 67% 29.56 in - NE 4.6 mph - N/A   Clear
8:50 PM 51.8 °F - 41.0 °F 67% 29.56 in - NE 5.8 mph - N/A   Clear
9:20 PM 50.0 °F - 41.0 °F 71% 29.53 in - NE 5.8 mph - N/A   Clear
9:50 PM 53.6 °F - 41.0 °F 62% 29.53 in - ENE 6.9 mph - N/A   Clear
10:00 PM 53 °F - 40 °F 52% 29.56 in 7 mi ENE 6.7 mph - -   Mostly Cloudy
10:20 PM 51.8 °F - 41.0 °F 67% 29.53 in - Variable 2.3 mph - N/A   Clear
10:50 PM 48.2 °F - 41.0 °F 76% 29.53 in - NE 2.3 mph - N/A   Clear
11:20 PM 46.4 °F - 39.2 °F 76% 29.53 in - NNE 2.3 mph - N/A   Clear
11:50 PM 44.6 °F 42.2 °F 39.2 °F 81% 29.50 in - NNE 4.6 mph - N/A   Clear